POLAR

Last updated on Nov. 15, 2019, 4:21 a.m. UTC

1 23802U 96013A   19317.51147369  .00000050  00000-0  00000+0 0  9995
2 23802  78.7074 252.8653 6543892 290.4822  13.4845  1.29845580113579
UTC
Height (km)
Latitude
Longitude
Inclination
Orbital Period
UTC large
Height (km)
Speed (km/s)
/
Latitude / Longitude
Inclination (degrees)
Orbital Period (minutes)
Azimuth
Elevation
Range (km)
Doppler Factor
iOS Compass Heading
iOS Angle

Next 30 passes for location: Hong Kong

Rise time Rise Azimuth (degrees) Set time Set Azimuth (degrees) Duration Max altitude (degrees)

No matching passes for this satellites